,,Stat5,,Stat1,,Stat2,,Stat3,,Stat4,,Wind1,,Wind1,
time,status,PA1M_AVG,status,PR1M_SUM,status,RH1M_AVG,status,SR1M_AVG,status,TA1M_AVG,status,W1dAve1m,status,W1sAve1m,
2001-11-05, 00:00:00,VALID,918.038,VALID,0,VALID,99.2322,VALID,-0.0169808,VALID,19.6249,VALID,27,VALID,0.376736,
2001-11-05, 00:01:00,VALID,918.038,VALID,0,VALID,99.2233,VALID,0,VALID,19.5988,VALID,27,VALID,0.33215,
2001-11-05, 00:02:00,VALID,918.018,VALID,0,VALID,99.222,VALID,-0.0339617,VALID,19.5641,VALID,26,VALID,0.330019,
2001-11-05, 00:03:00,VALID,918.016,VALID,0.2,VALID,99.2119,VALID,-0.0169808,VALID,19.5474,VALID,25,VALID,0.242839,
2001-11-05, 00:04:00,VALID,918.013,VALID,0,VALID,99.208,VALID,-0.0509425,VALID,19.5094,VALID,23,VALID,0.220129,
2001-11-05, 00:05:00,VALID,918.006,VALID,0,VALID,99.2106,VALID,-0.0169808,VALID,19.4957,VALID,23,VALID,0.181588,
2001-11-05, 00:06:00,VALID,918.001,VALID,0,VALID,99.2131,VALID,-0.0339617,VALID,19.4801,VALID,22,VALID,0.170641,
2001-11-05, 00:07:00,VALID,918.008,VALID,0,VALID,99.2258,VALID,0,VALID,19.4828,VALID,21,VALID,0,
2001-11-05, 00:08:00,VALID,917.994,VALID,0,VALID,99.2284,VALID,-0.0679233,VALID,19.5027,VALID,21,VALID,0,
2001-11-05, 00:09:00,VALID,917.994,VALID,0,VALID,99.236,VALID,-0.0169808,VALID,19.5121,VALID,21,VALID,0,
2001-11-05, 00:10:00,VALID,917.977,VALID,0,VALID,99.2551,VALID,-0.0169808,VALID,19.5444,VALID,21,VALID,0.0435855,
2001-11-05, 00:11:00,VALID,917.97,VALID,0,VALID,99.2627,VALID,-0.0509425,VALID,19.5675,VALID,19,VALID,0.108507,
2001-11-05, 00:12:00,VALID,917.971,VALID,0,VALID,99.2653,VALID,-0.0169808,VALID,19.5576,VALID,347,VALID,0.104852,
2001-11-05, 00:13:00,VALID,917.951,VALID,0,VALID,99.2525,VALID,0,VALID,19.5382,VALID,315,VALID,0.167869,
2001-11-05, 00:14:00,VALID,917.946,VALID,0,VALID,99.2653,VALID,-0.0339617,VALID,19.5221,VALID,315,VALID,0.173828,
2001-11-05, 00:15:00,VALID,917.941,VALID,0,VALID,99.2716,VALID,0,VALID,19.5216,VALID,315,VALID,0,
2001-11-05, 00:16:00,VALID,917.942,VALID,0,VALID,99.2538,VALID,-0.0339617,VALID,19.5119,VALID,287,VALID,0.255078,
2001-11-05, 00:17:00,VALID,917.929,VALID,0,VALID,99.25,VALID,-0.0169808,VALID,19.4833,VALID,281,VALID,0.359776,
2001-11-05, 00:18:00,VALID,917.938,VALID,0,VALID,99.2538,VALID,-0.0339617,VALID,19.4634,VALID,281,VALID,0.367393,
2001-11-05, 00:19:00,VALID,917.93,VALID,0,VALID,99.2589,VALID,-0.0339617,VALID,19.4739,VALID,281,VALID,0.213341,
2001-11-05, 00:20:00,VALID,917.926,VALID,0,VALID,99.2704,VALID,-0.0679233,VALID,19.4545,VALID,279,VALID,0.304482,
2001-11-05, 00:21:00,VALID,917.913,VALID,0,VALID,99.264,VALID,-0.0339617,VALID,19.4413,VALID,274,VALID,0.271034,
2001-11-05, 00:22:00,VALID,917.897,VALID,0,VALID,99.2793,VALID,-0.0509425,VALID,19.4671,VALID,279,VALID,0.380273,
2001-11-05, 00:23:00,VALID,917.884,VALID,0,VALID,99.2805,VALID,-0.0339617,VALID,19.4443,VALID,309,VALID,0.554265,
2001-11-05, 00:24:00,VALID,917.864,VALID,0,VALID,99.2805,VALID,-0.0509425,VALID,19.4284,VALID,326,VALID,0.398828,
2001-11-05, 00:25:00,VALID,917.868,VALID,0,VALID,99.2856,VALID,-0.0169808,VALID,19.4289,VALID,325,VALID,0.00240385,
2001-11-05, 00:26:00,VALID,917.859,VALID,0,VALID,99.2932,VALID,0,VALID,19.4348,VALID,326,VALID,0.00308388,
2001-11-05, 00:27:00,VALID,917.854,VALID,0,VALID,99.2907,VALID,-0.0339617,VALID,19.4739,VALID,327,VALID,0,
2001-11-05, 00:28:00,VALID,917.855,VALID,0,VALID,99.292,VALID,-0.0339617,VALID,19.4671,VALID,359,VALID,0.0969551,
2001-11-05, 00:29:00,VALID,917.849,VALID,0,VALID,99.2907,VALID,-0.0169808,VALID,19.4609,VALID,13,VALID,0.27524,
2001-11-05, 00:30:00,VALID,917.84,VALID,0,VALID,99.292,VALID,0,VALID,19.4865,VALID,13,VALID,0.330664,
2001-11-05, 00:31:00,VALID,917.838,VALID,0,VALID,99.311,VALID,0,VALID,19.4992,VALID,13,VALID,0.328336,
2001-11-05, 00:32:00,VALID,917.842,VALID,0,VALID,99.3034,VALID,0,VALID,19.499,VALID,13,VALID,0.324023,
2001-11-05, 00:33:00,VALID,917.831,VALID,0,VALID,99.2793,VALID,-0.0169808,VALID,19.4868,VALID,14,VALID,0.402444,
2001-11-05, 00:34:00,VALID,917.827,VALID,0,VALID,99.2843,VALID,-0.0509425,VALID,19.4413,VALID,25,VALID,0.221217,
2001-11-05, 00:35:00,VALID,917.825,VALID,0,VALID,99.2767,VALID,-0.0339617,VALID,19.4222,VALID,25,VALID,0.344551,
2001-11-05, 00:36:00,VALID,917.819,VALID,0,VALID,99.2742,VALID,-0.0169808,VALID,19.3929,VALID,26,VALID,0.374794,
2001-11-05, 00:37:00,VALID,917.813,VALID,0,VALID,99.2767,VALID,0,VALID,19.3829,VALID,28,VALID,0.43129,
2001-11-05, 00:38:00,VALID,917.805,VALID,0,VALID,99.2729,VALID,-0.0169808,VALID,19.364,VALID,28,VALID,0.426953,
2001-11-05, 00:39:00,VALID,917.794,VALID,0,VALID,99.2742,VALID,-0.0169808,VALID,19.3543,VALID,43,VALID,0.437289,
2001-11-05, 00:40:00,VALID,917.788,VALID,0,VALID,99.2742,VALID,-0.0509425,VALID,19.3243,VALID,30,VALID,0.208594,
2001-11-05, 00:41:00,VALID,917.793,VALID,0,VALID,99.278,VALID,-0.0509425,VALID,19.3382,VALID,30,VALID,0,
2001-11-05, 00:42:00,VALID,917.783,VALID,0,VALID,99.3009,VALID,-0.0169808,VALID,19.3504,VALID,30,VALID,0,
2001-11-05, 00:43:00,VALID,917.793,VALID,0,VALID,99.306,VALID,-0.0169808,VALID,19.3931,VALID,30,VALID,0.153245,
2001-11-05, 00:44:00,VALID,917.801,VALID,0,VALID,99.2983,VALID,-0.0339617,VALID,19.4088,VALID,30,VALID,0.475946,
2001-11-05, 00:45:00,VALID,917.802,VALID,0,VALID,99.2932,VALID,-0.0509425,VALID,19.3573,VALID,33,VALID,0.75641,
2001-11-05, 00:46:00,VALID,917.789,VALID,0,VALID,99.2704,VALID,-0.0509425,VALID,19.322,VALID,30,VALID,0.952148,
2001-11-05, 00:47:00,VALID,917.799,VALID,0,VALID,99.2704,VALID,-0.0509425,VALID,19.3253,VALID,28,VALID,0.898438,
2001-11-05, 00:48:00,VALID,917.788,VALID,0,VALID,99.2882,VALID,-0.0509425,VALID,19.3253,VALID,21,VALID,0.825781,
2001-11-05, 00:49:00,VALID,917.773,VALID,0,VALID,99.306,VALID,-0.0679233,VALID,19.3379,VALID,21,VALID,0.789063,
2001-11-05, 00:50:00,VALID,917.75,VALID,0,VALID,99.2996,VALID,-0.0509425,VALID,19.3379,VALID,22,VALID,0.533306,
2001-11-05, 00:51:00,VALID,917.74,VALID,0,VALID,99.3123,VALID,-0.0679233,VALID,19.3382,VALID,23,VALID,0.26262,
2001-11-05, 00:52:00,VALID,917.737,VALID,0,VALID,99.3123,VALID,0,VALID,19.3546,VALID,23,VALID,0,
2001-11-05, 00:53:00,VALID,917.714,VALID,0,VALID,99.3187,VALID,-0.0509425,VALID,19.3541,VALID,10,VALID,0.135417,
2001-11-05, 00:54:00,VALID,917.703,VALID,0,VALID,99.3161,VALID,0,VALID,19.3866,VALID,8,VALID,0.18418,
2001-11-05, 00:55:00,VALID,917.69,VALID,0,VALID,99.3187,VALID,-0.0339617,VALID,19.3829,VALID,1,VALID,0.03125,
2001-11-05, 00:56:00,VALID,917.687,VALID,0,VALID,99.3276,VALID,-0.0679233,VALID,19.377,VALID,300,VALID,0.238086,
2001-11-05, 00:57:00,VALID,917.674,VALID,0,VALID,99.3288,VALID,-0.0679233,VALID,19.3996,VALID,294,VALID,0.341146,
2001-11-05, 00:58:00,VALID,917.675,VALID,0,VALID,99.3288,VALID,-0.0169808,VALID,19.3896,VALID,270,VALID,0.401316,
2001-11-05, 00:59:00,VALID,917.68,VALID,0,VALID,99.3187,VALID,-0.0849042,VALID,19.3869,VALID,270,VALID,0.359976,
2001-11-05, 01:00:00,VALID,917.673,VALID,0,VALID,99.3288,VALID,-0.0339617,VALID,19.3864,VALID,269,VALID,0.360403,
2001-11-05, 01:01:00,VALID,917.657,VALID,0,VALID,99.3301,VALID,-0.0509425,VALID,19.3963,VALID,291,VALID,0.203926,
2001-11-05, 01:02:00,VALID,917.654,VALID,0,VALID,99.3352,VALID,-0.0679233,VALID,19.409,VALID,357,VALID,0.393164,
2001-11-05, 01:03:00,VALID,917.649,VALID,0,VALID,99.3428,VALID,-0.0339617,VALID,19.4443,VALID,3,VALID,0.579603,
2001-11-05, 01:04:00,VALID,917.636,VALID,0,VALID,99.3441,VALID,-0.0339617,VALID,19.4575,VALID,19,VALID,0.419727,
2001-11-05, 01:05:00,VALID,917.618,VALID,0,VALID,99.3466,VALID,-0.0169808,VALID,19.4674,VALID,6,VALID,0.597957,
2001-11-05, 01:06:00,VALID,917.607,VALID,0,VALID,99.3416,VALID,-0.0679233,VALID,19.4642,VALID,5,VALID,0.217105,
2001-11-05, 01:07:00,VALID,917.598,VALID,0,VALID,99.3377,VALID,-0.0509425,VALID,19.4607,VALID,310,VALID,0.330329,
2001-11-05, 01:08:00,VALID,917.589,VALID,0,VALID,99.3327,VALID,-0.0339617,VALID,19.4577,VALID,309,VALID,0.169408,
2001-11-05, 01:09:00,VALID,917.567,VALID,0.2,VALID,99.3377,VALID,-0.0509425,VALID,19.4545,VALID,309,VALID,0.0454728,
2001-11-05, 01:10:00,VALID,917.559,VALID,0,VALID,99.3479,VALID,-0.0679233,VALID,19.4676,VALID,328,VALID,0.106055,
2001-11-05, 01:11:00,VALID,917.556,VALID,0,VALID,99.3505,VALID,-0.0169808,VALID,19.4895,VALID,355,VALID,0.250633,
2001-11-05, 01:12:00,VALID,917.549,VALID,0,VALID,99.3581,VALID,-0.0339617,VALID,19.5151,VALID,356,VALID,0.0988281,
2001-11-05, 01:13:00,VALID,917.516,VALID,0,VALID,99.3594,VALID,-0.0509425,VALID,19.541,VALID,356,VALID,0.0873397,
2001-11-05, 01:14:00,VALID,917.516,VALID,0,VALID,99.3606,VALID,-0.0509425,VALID,19.5573,VALID,356,VALID,0.100329,
2001-11-05, 01:15:00,VALID,917.509,VALID,0,VALID,99.3479,VALID,-0.0679233,VALID,19.5154,VALID,356,VALID,0,
2001-11-05, 01:16:00,VALID,917.508,VALID,0,VALID,99.3492,VALID,-0.0339617,VALID,19.5221,VALID,356,VALID,0,
2001-11-05, 01:17:00,VALID,917.5,VALID,0,VALID,99.3543,VALID,-0.0169808,VALID,19.5218,VALID,356,VALID,0,
2001-11-05, 01:18:00,VALID,917.491,VALID,0,VALID,99.3517,VALID,-0.0169808,VALID,19.5158,VALID,356,VALID,0.0546875,
2001-11-05, 01:19:00,VALID,917.48,VALID,0,VALID,99.3454,VALID,-0.0509425,VALID,19.4923,VALID,356,VALID,0,
2001-11-05, 01:20:00,VALID,917.481,VALID,0,VALID,99.3505,VALID,0,VALID,19.5154,VALID,356,VALID,0,
2001-11-05, 01:21:00,VALID,917.471,VALID,0,VALID,99.3517,VALID,-0.0509425,VALID,19.5278,VALID,356,VALID,0,
2001-11-05, 01:22:00,VALID,917.445,VALID,0,VALID,99.367,VALID,0,VALID,19.5636,VALID,356,VALID,0,
2001-11-05, 01:23:00,VALID,917.435,VALID,0,VALID,99.3657,VALID,-0.0169808,VALID,19.5956,VALID,356,VALID,0,
2001-11-05, 01:24:00,VALID,917.419,VALID,0,VALID,99.3581,VALID,-0.0339617,VALID,19.5964,VALID,357,VALID,0.0378289,
2001-11-05, 01:25:00,VALID,917.396,VALID,0,VALID,99.3683,VALID,-0.0169808,VALID,19.606,VALID,358,VALID,0.127204,
2001-11-05, 01:26:00,VALID,917.375,VALID,0,VALID,99.3556,VALID,-0.0679233,VALID,19.6185,VALID,358,VALID,0.0445312,
2001-11-05, 01:27:00,VALID,917.358,VALID,0,VALID,99.3581,VALID,-0.0849042,VALID,19.609,VALID,340,VALID,0.376689,
2001-11-05, 01:28:00,VALID,917.347,VALID,0,VALID,99.3606,VALID,-0.0339617,VALID,19.541,VALID,328,VALID,0.340039,
2001-11-05, 01:29:00,VALID,917.343,VALID,0,VALID,99.3556,VALID,-0.0339617,VALID,19.5258,VALID,325,VALID,0.410457,
2001-11-05, 01:30:00,VALID,917.332,VALID,0,VALID,99.3505,VALID,-0.0509425,VALID,19.5064,VALID,324,VALID,0.27097,
2001-11-05, 01:31:00,VALID,917.323,VALID,0,VALID,99.3594,VALID,-0.0509425,VALID,19.5089,VALID,324,VALID,0.0899439,
2001-11-05, 01:32:00,VALID,917.313,VALID,0,VALID,99.353,VALID,-0.0509425,VALID,19.5124,VALID,324,VALID,0,
2001-11-05, 01:33:00,VALID,917.292,VALID,0,VALID,99.3594,VALID,0,VALID,19.5447,VALID,324,VALID,0.0430689,
2001-11-05, 01:34:00,VALID,917.287,VALID,0,VALID,99.3581,VALID,0.0849042,VALID,19.5395,VALID,324,VALID,0.0253906,
2001-11-05, 01:35:00,VALID,917.275,VALID,0,VALID,99.3517,VALID,0.0849042,VALID,19.5432,VALID,324,VALID,0,
2001-11-05, 01:36:00,VALID,917.254,VALID,0,VALID,99.3644,VALID,0.0509425,VALID,19.5757,VALID,324,VALID,0,
2001-11-05, 01:37:00,VALID,917.24,VALID,0,VALID,99.3644,VALID,0.101885,VALID,19.5884,VALID,324,VALID,0,
2001-11-05, 01:38:00,VALID,917.226,VALID,0,VALID,99.3683,VALID,0.0509425,VALID,19.5984,VALID,324,VALID,0,
2001-11-05, 01:39:00,VALID,917.222,VALID,0,VALID,99.3632,VALID,0.0849042,VALID,19.6068,VALID,324,VALID,0,
2001-11-05, 01:40:00,VALID,917.21,VALID,0,VALID,99.3619,VALID,0.0509425,VALID,19.6272,VALID,324,VALID,0,
2001-11-05, 01:41:00,VALID,917.196,VALID,0,VALID,99.3632,VALID,0.0679233,VALID,19.6103,VALID,324,VALID,0,
2001-11-05, 01:42:00,VALID,917.194,VALID,0,VALID,99.3683,VALID,0.0509425,VALID,19.6075,VALID,336,VALID,0.0882813,
2001-11-05, 01:43:00,VALID,917.183,VALID,0,VALID,99.3594,VALID,0.0679233,VALID,19.6269,VALID,354,VALID,0.058277,
2001-11-05, 01:44:00,VALID,917.178,VALID,0,VALID,99.3619,VALID,0.101885,VALID,19.6272,VALID,357,VALID,0.157031,
2001-11-05, 01:45:00,VALID,917.171,VALID,0,VALID,99.3734,VALID,0.101885,VALID,19.6202,VALID,17,VALID,0.0707131,
2001-11-05, 01:46:00,VALID,917.168,VALID,0,VALID,99.3517,VALID,0.0849042,VALID,19.6041,VALID,17,VALID,0,
2001-11-05, 01:47:00,VALID,917.166,VALID,0,VALID,99.3594,VALID,0.0849042,VALID,19.5944,VALID,17,VALID,0,
2001-11-05, 01:48:00,VALID,917.157,VALID,0,VALID,99.3683,VALID,0.0679233,VALID,19.5981,VALID,17,VALID,0,
2001-11-05, 01:49:00,VALID,917.16,VALID,0,VALID,99.3708,VALID,-0.0339617,VALID,19.6182,VALID,17,VALID,0,
2001-11-05, 01:50:00,VALID,917.154,VALID,0,VALID,99.3746,VALID,-0.0339617,VALID,19.6282,VALID,17,VALID,0.00605469,
2001-11-05, 01:51:00,VALID,917.161,VALID,0,VALID,99.3708,VALID,-0.0339617,VALID,19.6538,VALID,17,VALID,0.0375845,
2001-11-05, 01:52:00,VALID,917.131,VALID,0,VALID,99.3695,VALID,-0.0339617,VALID,19.661,VALID,17,VALID,0.0248047,
2001-11-05, 01:53:00,VALID,917.14,VALID,0,VALID,99.3734,VALID,-0.0169808,VALID,19.6637,VALID,17,VALID,0,
2001-11-05, 01:54:00,VALID,917.128,VALID,0,VALID,99.3683,VALID,0,VALID,19.6279,VALID,17,VALID,0.191406,
2001-11-05, 01:55:00,VALID,917.124,VALID,0,VALID,99.3734,VALID,0,VALID,19.6408,VALID,17,VALID,0.0316506,
2001-11-05, 01:56:00,VALID,917.122,VALID,0,VALID,99.3632,VALID,-0.0339617,VALID,19.615,VALID,17,VALID,0,
2001-11-05, 01:57:00,VALID,917.121,VALID,0,VALID,99.367,VALID,-0.0339617,VALID,19.5827,VALID,17,VALID,0,
2001-11-05, 01:58:00,VALID,917.121,VALID,0,VALID,99.3708,VALID,-0.0339617,VALID,19.5596,VALID,17,VALID,0.213477,
2001-11-05, 01:59:00,VALID,917.114,VALID,0,VALID,99.3708,VALID,0,VALID,19.6028,VALID,21,VALID,0.386402,
2001-11-05, 02:00:00,VALID,917.109,VALID,0,VALID,99.3835,VALID,0,VALID,19.6053,VALID,9,VALID,0.3,
2001-11-05, 02:01:00,VALID,917.113,VALID,0,VALID,99.3772,VALID,-0.0509425,VALID,19.6515,VALID,7,VALID,0.221955,
2001-11-05, 02:02:00,VALID,917.112,VALID,0,VALID,99.3861,VALID,-0.0339617,VALID,19.6833,VALID,8,VALID,0.298314,
2001-11-05, 02:03:00,VALID,917.099,VALID,0,VALID,99.3772,VALID,-0.0339617,VALID,19.6928,VALID,5,VALID,0.267027,
2001-11-05, 02:04:00,VALID,917.084,VALID,0,VALID,99.3632,VALID,-0.0679233,VALID,19.6801,VALID,3,VALID,0.0345395,
2001-11-05, 02:05:00,VALID,917.053,VALID,0,VALID,99.3772,VALID,-0.0849042,VALID,19.6547,VALID,3,VALID,0.167187,
2001-11-05, 02:06:00,VALID,917.053,VALID,0,VALID,99.3734,VALID,-0.0849042,VALID,19.6451,VALID,3,VALID,0.0886719,
2001-11-05, 02:07:00,VALID,917.032,VALID,0,VALID,99.3759,VALID,-0.0849042,VALID,19.6354,VALID,5,VALID,0.184333,
2001-11-05, 02:08:00,VALID,917.028,VALID,0,VALID,99.3784,VALID,-0.0849042,VALID,19.6483,VALID,17,VALID,0.513672,
2001-11-05, 02:09:00,VALID,917.006,VALID,0,VALID,99.3899,VALID,-0.0679233,VALID,19.6711,VALID,17,VALID,0.585737,
2001-11-05, 02:10:00,VALID,916.987,VALID,0,VALID,99.3861,VALID,-0.101885,VALID,19.6967,VALID,9,VALID,0.491982,
2001-11-05, 02:11:00,VALID,916.975,VALID,0,VALID,99.3924,VALID,-0.0679233,VALID,19.7027,VALID,12,VALID,0.38722,
2001-11-05, 02:12:00,VALID,916.975,VALID,0,VALID,99.3873,VALID,-0.0679233,VALID,19.729,VALID,21,VALID,0.5956,
2001-11-05, 02:13:00,VALID,916.978,VALID,0,VALID,99.3835,VALID,-0.0509425,VALID,19.7681,VALID,22,VALID,0.818109,
2001-11-05, 02:14:00,VALID,916.97,VALID,0,VALID,99.3975,VALID,-0.0339617,VALID,19.7713,VALID,12,VALID,0.262109,
2001-11-05, 02:15:00,VALID,916.968,VALID,0,VALID,99.3861,VALID,-0.0509425,VALID,19.784,VALID,11,VALID,0.287796,
2001-11-05, 02:16:00,VALID,916.962,VALID,0,VALID,99.3861,VALID,-0.0849042,VALID,19.7802,VALID,12,VALID,0.470313,
2001-11-05, 02:17:00,VALID,916.954,VALID,0.2,VALID,99.3988,VALID,-0.0339617,VALID,19.7899,VALID,21,VALID,0.388822,
2001-11-05, 02:18:00,VALID,916.937,VALID,0,VALID,99.3823,VALID,-0.0509425,VALID,19.7867,VALID,23,VALID,0.454359,
2001-11-05, 02:19:00,VALID,916.93,VALID,0,VALID,99.3899,VALID,0.0339617,VALID,19.8018,VALID,16,VALID,0.0456731,
2001-11-05, 02:20:00,VALID,916.921,VALID,0,VALID,99.3797,VALID,0.0509425,VALID,19.7882,VALID,17,VALID,0.175987,
2001-11-05, 02:21:00,VALID,916.911,VALID,0,VALID,99.3784,VALID,0,VALID,19.7949,VALID,17,VALID,0.28125,
2001-11-05, 02:22:00,VALID,916.888,VALID,0,VALID,99.3873,VALID,0.0339617,VALID,19.7723,VALID,7,VALID,0.426562,
2001-11-05, 02:23:00,VALID,916.886,VALID,0,VALID,99.3823,VALID,0.0679233,VALID,19.7459,VALID,7,VALID,0.481208,
2001-11-05, 02:24:00,VALID,916.879,VALID,0,VALID,99.3797,VALID,0.0679233,VALID,19.7534,VALID,12,VALID,0.257031,
2001-11-05, 02:25:00,VALID,916.87,VALID,0,VALID,99.3797,VALID,0.0679233,VALID,19.7213,VALID,302,VALID,0.147035,
2001-11-05, 02:26:00,VALID,916.875,VALID,0.2,VALID,99.3886,VALID,0.0509425,VALID,19.7049,VALID,295,VALID,0.00102796,
2001-11-05, 02:27:00,VALID,916.853,VALID,0,VALID,99.381,VALID,0.0169808,VALID,19.7012,VALID,237,VALID,0.275841,
2001-11-05, 02:28:00,VALID,916.863,VALID,0,VALID,99.3886,VALID,0.0509425,VALID,19.688,VALID,223,VALID,0.393298,
2001-11-05, 02:29:00,VALID,916.86,VALID,0,VALID,99.3823,VALID,0.0679233,VALID,19.662,VALID,220,VALID,0.635817,
2001-11-05, 02:30:00,VALID,916.858,VALID,0,VALID,99.3912,VALID,0.0679233,VALID,19.6587,VALID,220,VALID,0.686914,
2001-11-05, 02:31:00,VALID,916.841,VALID,0.2,VALID,99.3899,VALID,0.0679233,VALID,19.6394,VALID,197,VALID,0.485431,
2001-11-05, 02:32:00,VALID,916.824,VALID,0,VALID,99.3823,VALID,0.0849042,VALID,19.6468,VALID,180,VALID,0.164258,
2001-11-05, 02:33:00,VALID,916.827,VALID,0,VALID,99.3975,VALID,0.0169808,VALID,19.6366,VALID,245,VALID,0.578325,
2001-11-05, 02:34:00,VALID,916.831,VALID,0,VALID,99.3848,VALID,-0.0509425,VALID,19.6217,VALID,248,VALID,0.684622,
2001-11-05, 02:35:00,VALID,916.812,VALID,0,VALID,99.4013,VALID,-0.0169808,VALID,19.6381,VALID,15,VALID,0.897436,
2001-11-05, 02:36:00,VALID,916.834,VALID,0,VALID,99.4039,VALID,-0.0679233,VALID,19.6739,VALID,300,VALID,0.278166,
2001-11-05, 02:37:00,VALID,916.816,VALID,0,VALID,99.3899,VALID,-0.0169808,VALID,19.6639,VALID,213,VALID,0.478966,
2001-11-05, 02:38:00,VALID,916.81,VALID,0,VALID,99.395,VALID,-0.0509425,VALID,19.6674,VALID,188,VALID,0.573828,
2001-11-05, 02:39:00,VALID,916.789,VALID,0,VALID,99.4026,VALID,-0.0679233,VALID,19.6672,VALID,258,VALID,0.218328,
2001-11-05, 02:40:00,VALID,916.799,VALID,0,VALID,99.4064,VALID,0,VALID,19.6962,VALID,331,VALID,0.463086,
2001-11-05, 02:41:00,VALID,916.782,VALID,0,VALID,99.414,VALID,0,VALID,19.7156,VALID,302,VALID,0.635016,
2001-11-05, 02:42:00,VALID,916.763,VALID,0,VALID,99.4102,VALID,0,VALID,19.6992,VALID,311,VALID,0.520148,
2001-11-05, 02:43:00,VALID,916.759,VALID,0,VALID,99.3899,VALID,-0.0509425,VALID,19.6796,VALID,352,VALID,0.16867,
2001-11-05, 02:44:00,VALID,916.761,VALID,0,VALID,99.4077,VALID,-0.0169808,VALID,19.7025,VALID,22,VALID,0.619243,
2001-11-05, 02:45:00,VALID,916.753,VALID,0,VALID,99.4013,VALID,-0.0339617,VALID,19.7159,VALID,310,VALID,0.0841346,
2001-11-05, 02:46:00,VALID,916.747,VALID,0,VALID,99.4013,VALID,-0.0339617,VALID,19.6828,VALID,351,VALID,0.332617,
2001-11-05, 02:47:00,VALID,916.734,VALID,0,VALID,99.4064,VALID,-0.0339617,VALID,19.6798,VALID,37,VALID,0.274493,
2001-11-05, 02:48:00,VALID,916.747,VALID,0,VALID,99.395,VALID,-0.0169808,VALID,19.699,VALID,30,VALID,0.197852,
2001-11-05, 02:49:00,VALID,916.746,VALID,0,VALID,99.4051,VALID,0,VALID,19.7124,VALID,32,VALID,0.423478,
2001-11-05, 02:50:00,VALID,916.732,VALID,0,VALID,99.4013,VALID,-0.0169808,VALID,19.7121,VALID,351,VALID,0.515214,
2001-11-05, 02:51:00,VALID,916.738,VALID,0,VALID,99.4001,VALID,-0.0339617,VALID,19.6895,VALID,260,VALID,0.619591,
2001-11-05, 02:52:00,VALID,916.74,VALID,0,VALID,99.409,VALID,-0.0679233,VALID,19.6448,VALID,283,VALID,0.341283,
2001-11-05, 02:53:00,VALID,916.763,VALID,0,VALID,99.4064,VALID,-0.0169808,VALID,19.6446,VALID,133,VALID,0.0458734,
2001-11-05, 02:54:00,VALID,916.766,VALID,0,VALID,99.4077,VALID,-0.0339617,VALID,19.6443,VALID,22,VALID,0.287109,
2001-11-05, 02:55:00,VALID,916.77,VALID,0,VALID,99.4128,VALID,-0.0509425,VALID,19.6438,VALID,46,VALID,0.623944,
2001-11-05, 02:56:00,VALID,916.744,VALID,0,VALID,99.4128,VALID,-0.0339617,VALID,19.6346,VALID,23,VALID,1.1416,
2001-11-05, 02:57:00,VALID,916.746,VALID,0,VALID,99.4102,VALID,-0.0169808,VALID,19.6483,VALID,15,VALID,0.643229,
2001-11-05, 02:58:00,VALID,916.74,VALID,0,VALID,99.4204,VALID,-0.0169808,VALID,19.6702,VALID,32,VALID,0.596628,
2001-11-05, 02:59:00,VALID,916.739,VALID,0,VALID,99.4115,VALID,-0.0169808,VALID,19.6699,VALID,173,VALID,0.665665,
2001-11-05, 03:00:00,VALID,916.738,VALID,0,VALID,99.4013,VALID,-0.0339617,VALID,19.6543,VALID,98,VALID,0.485197,
2001-11-05, 03:01:00,VALID,916.716,VALID,0,VALID,99.409,VALID,0,VALID,19.6475,VALID,8,VALID,0.360978,
2001-11-05, 03:02:00,VALID,916.724,VALID,0,VALID,99.4128,VALID,0,VALID,19.654,VALID,53,VALID,0.223438,
2001-11-05, 03:03:00,VALID,916.716,VALID,0,VALID,99.4229,VALID,-0.0169808,VALID,19.6535,VALID,20,VALID,0.755701,
2001-11-05, 03:04:00,VALID,916.702,VALID,0,VALID,99.4128,VALID,-0.0169808,VALID,19.6664,VALID,27,VALID,0.501367,
2001-11-05, 03:05:00,VALID,916.707,VALID,0,VALID,99.4077,VALID,0,VALID,19.6607,VALID,46,VALID,0.551883,
2001-11-05, 03:06:00,VALID,916.679,VALID,0,VALID,99.4128,VALID,-0.0169808,VALID,19.6535,VALID,26,VALID,0.880551,
2001-11-05, 03:07:00,VALID,916.671,VALID,0,VALID,99.4204,VALID,0,VALID,19.6823,VALID,28,VALID,1.3111,
2001-11-05, 03:08:00,VALID,916.651,VALID,0,VALID,99.409,VALID,0.0169808,VALID,19.6925,VALID,13,VALID,1.22307,
2001-11-05, 03:09:00,VALID,916.647,VALID,0,VALID,99.414,VALID,0.0339617,VALID,19.6567,VALID,18,VALID,1.34836,
2001-11-05, 03:10:00,VALID,916.64,VALID,0,VALID,99.4039,VALID,0,VALID,19.657,VALID,19,VALID,1.17461,
2001-11-05, 03:11:00,VALID,916.626,VALID,0,VALID,99.4166,VALID,0,VALID,19.66,VALID,8,VALID,1.37796,
2001-11-05, 03:12:00,VALID,916.626,VALID,0,VALID,99.4077,VALID,0,VALID,19.6279,VALID,335,VALID,1.01211,
2001-11-05, 03:13:00,VALID,916.626,VALID,0,VALID,99.409,VALID,-0.0169808,VALID,19.5827,VALID,344,VALID,0.987981,
2001-11-05, 03:14:00,VALID,916.642,VALID,0,VALID,99.4128,VALID,0,VALID,19.5862,VALID,13,VALID,1.03084,
2001-11-05, 03:15:00,VALID,916.67,VALID,0,VALID,99.4128,VALID,0,VALID,19.609,VALID,13,VALID,1.09315,
2001-11-05, 03:16:00,VALID,916.673,VALID,0.2,VALID,99.4179,VALID,0,VALID,19.5824,VALID,4,VALID,1.63549,
2001-11-05, 03:17:00,VALID,916.677,VALID,0,VALID,99.4217,VALID,-0.0509425,VALID,19.5765,VALID,19,VALID,1.69151,
2001-11-05, 03:18:00,VALID,916.669,VALID,0,VALID,99.4102,VALID,0.0169808,VALID,19.5827,VALID,5,VALID,1.26387,
2001-11-05, 03:19:00,VALID,916.674,VALID,0,VALID,99.4242,VALID,-0.0169808,VALID,19.5827,VALID,349,VALID,0.726563,
2001-11-05, 03:20:00,VALID,916.674,VALID,0,VALID,99.4268,VALID,-0.0339617,VALID,19.5926,VALID,304,VALID,0.715234,
2001-11-05, 03:21:00,VALID,916.664,VALID,0,VALID,99.4331,VALID,0,VALID,19.5924,VALID,14,VALID,1.09295,
2001-11-05, 03:22:00,VALID,916.658,VALID,0,VALID,99.428,VALID,0.0169808,VALID,19.618,VALID,14,VALID,1.25308,
2001-11-05, 03:23:00,VALID,916.667,VALID,0,VALID,99.4217,VALID,0,VALID,19.6282,VALID,354,VALID,1.27083,
2001-11-05, 03:24:00,VALID,916.655,VALID,0,VALID,99.428,VALID,0,VALID,19.6215,VALID,13,VALID,1.07627,
2001-11-05, 03:25:00,VALID,916.638,VALID,0,VALID,99.4306,VALID,0,VALID,19.6277,VALID,26,VALID,1.23438,
2001-11-05, 03:26:00,VALID,916.64,VALID,0,VALID,99.4357,VALID,0,VALID,19.6567,VALID,12,VALID,1.0543,
2001-11-05, 03:27:00,VALID,916.634,VALID,0,VALID,99.428,VALID,-0.0169808,VALID,19.6664,VALID,360,VALID,1.0473,
2001-11-05, 03:28:00,VALID,916.634,VALID,0,VALID,99.4344,VALID,-0.0169808,VALID,19.6731,VALID,294,VALID,0.444727,
2001-11-05, 03:29:00,VALID,916.642,VALID,0,VALID,99.4382,VALID,0,VALID,19.6736,VALID,71,VALID,0.437099,
2001-11-05, 03:30:00,VALID,916.642,VALID,0,VALID,99.4306,VALID,0,VALID,19.6702,VALID,163,VALID,0.246299,
2001-11-05, 03:31:00,VALID,916.631,VALID,0,VALID,99.4293,VALID,0,VALID,19.6565,VALID,351,VALID,0.524639,
2001-11-05, 03:32:00,VALID,916.63,VALID,0,VALID,99.4229,VALID,0,VALID,19.6826,VALID,278,VALID,0.333265,
2001-11-05, 03:33:00,VALID,916.623,VALID,0,VALID,99.4331,VALID,-0.0169808,VALID,19.6866,VALID,342,VALID,0.352364,